Petersburg, AK

10:02 AM AKDT on July 24, 2017 (GMT -0800)
Johnson Petersburg

Weather History for PAPG - October, 2012

Change the Weather History Date:

Tuesday, October 23, 2012

  Actual Average Record
Temperature  
Mean Temperature 33 °F -  
Max Temperature 42 °F 44 °F 57 °F (1998)
Min Temperature 24 °F 36 °F 24 °F (2012)
Degree Days  
Heating Degree Days 32    
Moisture  
Dew Point 20 °F    
Average Humidity 66    
Maximum Humidity 86    
Minimum Humidity 34    
Precipitation  
Precipitation 0.00 in - - ()
Sea Level Pressure  
Sea Level Pressure 30.00 in    
Wind  
Wind Speed 5 mph (SW)    
Max Wind Speed 9 mph    
Max Gust Speed -    
Visibility 10 miles    
Events      
Averages and records for this station are not official NWS values.
T = Trace of Precipitation, MM = Missing Value Source: NWS Daily Summary

Daily Weather History Graph

Daily Weather History Graph

Search for Another Location

Airport or City:

Trip Planner

Search our weather history database for the weather conditions in past years. The results will help you decide how hot, cold, wet, or windy it might be!

Date:

Astronomy

Oct. 23, 2012 Rise Set
Actual Time 7:43 AM AKDT 5:27 PM AKDT
Civil Twilight 7:03 AM AKDT 6:07 PM AKDT
Nautical Twilight 6:19 AM AKDT 6:51 PM AKDT
Astronomical Twilight 5:35 AM AKDT 7:35 PM AKDT
Moon 3:13 PM AKDT (10/23) 12:37 AM AKDT (10/23)
Length of Visible Light 11h 03m
Length of Day
9h 44m
Waxing Gibbous, 68% of the Moon is Illuminated
Oct 23
Waxing Gibbous
Oct 29
Full
Nov 6
Last Quarter
Nov 13
New
Nov 20
First Quarter

Hourly Weather History & Observations

Time (AKDT) Temp. Windchill Dew Point Humidity Pressure Visibility Wind Dir Wind Speed Gust Speed Precip Events Conditions
12:16 AM 30.2 °F 24.3 °F 19.4 °F 64% 29.93 in 10.0 mi WSW 5.8 mph - N/A   Clear
12:36 AM 30.2 °F 24.3 °F 19.4 °F 64% 29.93 in 10.0 mi WSW 5.8 mph - N/A   Clear
12:56 AM 30.2 °F 24.3 °F 19.4 °F 64% 29.93 in 10.0 mi WSW 5.8 mph - N/A   Clear
1:16 AM 28.4 °F 23.3 °F 19.4 °F 69% 29.93 in 10.0 mi SW 4.6 mph - N/A   Clear
1:36 AM 28.4 °F 23.3 °F 19.4 °F 69% 29.94 in 10.0 mi SW 4.6 mph - N/A   Clear
1:56 AM 28.4 °F 24.6 °F 19.4 °F 69% 29.94 in 10.0 mi SSW 3.5 mph - N/A   Clear
2:16 AM 26.6 °F 22.6 °F 19.4 °F 74% 29.94 in 10.0 mi WSW 3.5 mph - N/A   Clear
2:36 AM 24.8 °F 19.1 °F 21.2 °F 86% 29.94 in 10.0 mi SW 4.6 mph - N/A   Clear
2:56 AM 26.6 °F 21.2 °F 19.4 °F 74% 29.94 in 10.0 mi SW 4.6 mph - N/A   Clear
3:16 AM 28.4 °F 24.6 °F 19.4 °F 69% 29.93 in 10.0 mi SSW 3.5 mph - N/A   Clear
3:36 AM 28.4 °F 23.3 °F 19.4 °F 69% 29.94 in 10.0 mi WSW 4.6 mph - N/A   Clear
3:56 AM 26.6 °F 21.2 °F 19.4 °F 74% 29.94 in 10.0 mi SW 4.6 mph - N/A   Clear
4:16 AM 26.6 °F 21.2 °F 19.4 °F 74% 29.94 in 10.0 mi WSW 4.6 mph - N/A   Clear
4:36 AM 28.4 °F 22.2 °F 19.4 °F 69% 29.94 in 10.0 mi SW 5.8 mph - N/A   Clear
4:56 AM 28.4 °F 21.2 °F 19.4 °F 69% 29.93 in 10.0 mi SW 6.9 mph - N/A   Clear
5:16 AM 28.4 °F 22.2 °F 17.6 °F 64% 29.93 in 10.0 mi SW 5.8 mph - N/A   Clear
5:36 AM 28.4 °F 23.3 °F 19.4 °F 69% 29.94 in 10.0 mi WSW 4.6 mph - N/A   Clear
5:56 AM 28.4 °F 24.6 °F 19.4 °F 69% 29.94 in 10.0 mi WSW 3.5 mph - N/A   Clear
6:16 AM 28.4 °F 23.3 °F 19.4 °F 69% 29.94 in 10.0 mi WSW 4.6 mph - N/A   Clear
6:36 AM 28.4 °F 23.3 °F 19.4 °F 69% 29.94 in 10.0 mi SW 4.6 mph - N/A   Clear
6:56 AM 26.6 °F 22.6 °F 19.4 °F 74% 29.95 in 10.0 mi WSW 3.5 mph - N/A   Clear
7:16 AM 26.6 °F 21.2 °F 19.4 °F 74% 29.95 in 10.0 mi SSW 4.6 mph - N/A   Clear
7:36 AM 24.8 °F 16.9 °F 19.4 °F 80% 29.95 in 10.0 mi WSW 6.9 mph - N/A   Clear
7:56 AM 26.6 °F 19.1 °F 21.2 °F 80% 29.96 in 10.0 mi WSW 6.9 mph - N/A   Clear
8:16 AM 26.6 °F 21.2 °F 19.4 °F 74% 29.96 in 10.0 mi WSW 4.6 mph - N/A   Clear
8:36 AM 26.6 °F 20.0 °F 19.4 °F 74% 29.96 in 10.0 mi SW 5.8 mph - N/A   Clear
8:56 AM 28.4 °F 22.2 °F 23.0 °F 80% 30.00 in 10.0 mi SSW 5.8 mph - N/A   Clear
9:50 AM 32.0 °F 24.2 °F 23.0 °F 69% 30.00 in 10.0 mi SW 9.2 mph - N/A   Clear
10:47 AM 33.8 °F 27.0 °F 23.0 °F 65% 30.00 in 10.0 mi WSW 8.1 mph - N/A   Clear
11:52 AM 37.4 °F - 24.8 °F 60% 30.01 in 10.0 mi Calm Calm - N/A   Clear
12:48 PM 41.0 °F - 23.0 °F 49% 30.01 in 10.0 mi Calm Calm - N/A   Clear
1:49 PM 42.8 °F 39.3 °F 21.2 °F 42% 30.01 in 10.0 mi ENE 5.8 mph - N/A   Clear
2:36 PM 42.8 °F 41.1 °F 17.6 °F 36% 30.02 in 10.0 mi ESE 3.5 mph - N/A   Clear
2:56 PM 42.8 °F - 15.8 °F 34% 30.03 in - Calm Calm - N/A   Clear
3:16 PM 42.8 °F - 15.8 °F 34% 30.02 in 10.0 mi Calm Calm - N/A   Clear
3:36 PM 42.8 °F 40.1 °F 15.8 °F 34% 30.03 in 10.0 mi East 4.6 mph - N/A   Clear
3:56 PM 41.0 °F 38.0 °F 17.6 °F 39% 30.02 in 10.0 mi SE 4.6 mph - N/A   Clear
4:16 PM 39.2 °F 35.9 °F 17.6 °F 42% 30.03 in 10.0 mi SE 4.6 mph - N/A   Clear
4:36 PM 37.4 °F 33.8 °F 19.4 °F 48% 30.03 in 10.0 mi SE 4.6 mph - N/A   Clear
4:56 PM 35.6 °F 31.7 °F 19.4 °F 52% 30.03 in 10.0 mi SE 4.6 mph - N/A   Clear
5:16 PM 33.8 °F 29.6 °F 21.2 °F 60% 30.03 in 10.0 mi SE 4.6 mph - N/A   Clear
5:36 PM 32.0 °F 28.7 °F 21.2 °F 64% 30.01 in 10.0 mi WSW 3.5 mph - N/A   Clear
5:56 PM 32.0 °F 28.7 °F 19.4 °F 60% 30.02 in 10.0 mi South 3.5 mph - N/A   Clear
6:16 PM 30.2 °F - 23.0 °F 75% 30.02 in 10.0 mi Calm Calm - N/A   Clear
6:36 PM 28.4 °F 24.6 °F 21.2 °F 74% 30.02 in 10.0 mi SSW 3.5 mph - N/A   Clear
6:56 PM 30.2 °F - 21.2 °F 69% 30.01 in 10.0 mi Calm Calm - N/A   Clear
7:16 PM 28.4 °F - 21.2 °F 74% 30.01 in 10.0 mi Calm Calm - N/A   Clear
7:36 PM 28.4 °F 24.6 °F 23.0 °F 80% 30.05 in 10.0 mi South 3.5 mph - N/A   Clear
7:56 PM 28.4 °F 21.2 °F 21.2 °F 74% 30.05 in 10.0 mi SSW 6.9 mph - N/A   Clear
8:16 PM 30.2 °F 26.7 °F 21.2 °F 69% 30.06 in 10.0 mi SW 3.5 mph - N/A   Clear
8:36 PM 28.4 °F 23.3 °F 21.2 °F 74% 30.06 in 10.0 mi SSW 4.6 mph - N/A   Clear
8:56 PM 28.4 °F - 21.2 °F 74% 30.06 in 10.0 mi Calm Calm - N/A   Clear
9:16 PM 28.4 °F 23.3 °F 21.2 °F 74% 30.06 in 10.0 mi SW 4.6 mph - N/A   Clear
9:36 PM 28.4 °F 23.3 °F 21.2 °F 74% 30.07 in 10.0 mi SSW 4.6 mph - N/A   Clear
9:56 PM 28.4 °F 24.6 °F 21.2 °F 74% 30.07 in 10.0 mi WSW 3.5 mph - N/A   Clear
10:16 PM 28.4 °F 20.4 °F 21.2 °F 74% 30.08 in 10.0 mi WSW 8.1 mph - N/A   Clear
10:36 PM 28.4 °F 23.3 °F 21.2 °F 74% 30.08 in 10.0 mi South 4.6 mph - N/A   Clear
10:56 PM 28.4 °F 23.3 °F 19.4 °F 69% 30.08 in 10.0 mi WSW 4.6 mph - N/A   Clear
11:16 PM 28.4 °F 22.2 °F 19.4 °F 69% 30.08 in 10.0 mi WSW 5.8 mph - N/A   Clear
11:36 PM 30.2 °F 25.4 °F 19.4 °F 64% 30.08 in 10.0 mi SSW 4.6 mph - N/A   Clear
11:56 PM 28.4 °F 23.3 °F 19.4 °F 69% 30.06 in 10.0 mi SW 4.6 mph - N/A   Clear